Location: *
(51.4660°N, 0.3360°W)
Time: 21:05:31
(UTC+00:00)

Cosmos 389 Rocket - Pass Details

Date: 19 September 2019
Orbit: 444 x 478 km, 81.1° (Epoch: 20 October)

Event Time Altitude Azimuth Distance (km) Brightness Sun altitude
Rises 18:55:32 0° 353° (N) 2,460 6.4 -8.3°
Reaches altitude 10° 18:57:43 10° 2° (N) 1,581 5.3 -8.6°
Maximum altitude 19:00:56 37° 71° (ENE) 718 3.0 -9.1°
Drops below altitude 10° 19:04:08 10° 141° (SE) 1,567 4.7 -9.6°
Enters shadow 19:04:29 - 143° (SE) 1,703 4.9 -9.6°
